Waarnemingen

Advertentie
Mijn weer
Charleroi/Gosselies, België (6449): temperatuur & dauwpunt: 12.10.2019 03:00:00 - 18.10.2019 03:00:00 (CEST)Charleroi/Gosselies, België (6449): windsnelheid & windstoten: 12.10.2019 03:00:00 - 18.10.2019 03:00:00 (CEST)Charleroi/Gosselies, België (6449): windrichting: 12.10.2019 03:00:00 - 18.10.2019 03:00:00 (CEST)Charleroi/Gosselies, België (6449): luchtdruk: 12.10.2019 03:00:00 - 18.10.2019 03:00:00 (CEST)Charleroi/Gosselies, België (6449): zicht: 12.10.2019 03:00:00 - 18.10.2019 03:00:00 (CEST)
Datum & Tijd tt [°C] td [°C] ff [km/u] ff [kn] fx [km/u] fx [kn] dd ppp [hPa] vv [km]
18.10.2019 03:00:00 12,5 11,1 13 7 32 18 Z 1007,9 10
18.10.2019 02:00:00 12,8 11,4 18 10 - - Z 1008,4 10
18.10.2019 01:00:00 12,8 10,9 21 11 29 16 Z 1008,7 10
18.10.2019 00:00:00 12,6 10,9 15 8 25 14 Z 1009,3 10
17.10.2019 23:00:00 12,3 10,8 15 8 - - Z 1009,9 10
17.10.2019 22:00:00 12,5 11,0 16 9 29 16 ZZW 1010,0 10
17.10.2019 21:00:00 12,4 11,2 15 8 25 14 ZZW 1010,1 10
17.10.2019 20:00:00 12,3 11,2 9 5 - - Z 1009,9 10
17.10.2019 19:00:00 12,7 11,4 13 7 22 12 ZZW 1009,7 10
17.10.2019 18:00:00 13,4 11,6 15 8 25 14 ZW 1009,8 10
17.10.2019 17:00:00 13,4 11,8 15 8 - - ZW 1009,9 10
17.10.2019 16:00:00 12,8 11,5 15 8 32 18 ZZW 1009,9 6
17.10.2019 15:00:00 13,0 12,1 11 6 18 10 ZZW 1010,4 4,5
17.10.2019 14:00:00 13,1 11,8 13 7 - - ZZW 1010,7 8
17.10.2019 13:00:00 13,4 10,9 13 7 25 14 ZZW 1011,1 10
17.10.2019 12:00:00 13,1 10,5 15 8 25 14 Z 1011,3 10
17.10.2019 11:00:00 13,0 10,7 15 8 - - ZZW 1011,5 10
17.10.2019 10:00:00 11,7 10,2 11 6 22 12 ZZW 1011,5 10
17.10.2019 09:00:00 11,5 10,4 13 7 18 10 ZW 1011,3 10
17.10.2019 08:00:00 11,2 10,3 13 7 - - WZW 1010,5 7
17.10.2019 07:00:00 11,7 10,8 16 9 29 16 WZW 1009,6 4,0
17.10.2019 06:00:00 12,9 11,9 16 9 25 14 ZW 1009,0 6
17.10.2019 05:00:00 12,8 12,0 15 8 - - ZZW 1008,6 5
17.10.2019 04:00:00 12,7 11,9 16 9 32 18 ZZW 1008,5 3,0
17.10.2019 03:00:00 12,7 11,8 18 10 36 19 ZZW 1008,4 4,0
17.10.2019 02:00:00 12,7 11,7 22 12 - - Z 1008,1 4,0
17.10.2019 01:00:00 12,7 11,5 22 12 40 21 Z 1008,0 10
17.10.2019 00:00:00 12,5 11,4 24 13 40 21 Z 1008,1 10
16.10.2019 23:00:00 12,7 11,4 22 12 - - Z 1008,2 6
16.10.2019 22:00:00 12,7 11,6 24 13 43 23 Z 1008,2 3,0
16.10.2019 21:00:00 13,0 11,9 22 12 40 21 Z 1008,2 7
16.10.2019 20:00:00 13,0 12,0 24 13 - - Z 1008,4 5
16.10.2019 19:00:00 13,1 12,1 21 11 36 19 Z 1008,3 3,5
16.10.2019 18:00:00 13,2 12,2 24 13 36 19 ZZW 1008,2 10
16.10.2019 17:00:00 13,0 12,1 22 12 - - ZZW 1008,4 3,5
16.10.2019 16:00:00 12,9 11,9 22 12 43 23 Z 1008,4 7
16.10.2019 15:00:00 12,8 11,8 24 13 43 23 Z 1008,3 4,0
16.10.2019 14:00:00 12,7 11,5 24 13 - - ZZW 1008,4 7
16.10.2019 13:00:00 12,4 11,2 24 13 40 21 Z 1008,7 10
16.10.2019 12:00:00 12,0 10,7 24 13 40 21 Z 1008,8 10
16.10.2019 11:00:00 11,2 10,0 18 10 - - Z 1009,1 10
16.10.2019 10:00:00 11,1 9,9 21 11 32 18 Z 1009,5 10
16.10.2019 09:00:00 10,9 9,6 18 10 32 18 Z 1009,5 10
16.10.2019 08:00:00 10,5 8,9 18 10 - - Z 1009,8 10
16.10.2019 07:00:00 10,2 8,6 15 8 25 14 Z 1010,2 10
16.10.2019 06:00:00 9,9 8,4 18 10 29 16 ZZW 1010,4 10
16.10.2019 05:00:00 10,7 8,5 18 10 - - ZZW 1010,6 10
16.10.2019 04:00:00 11,1 8,6 21 11 36 19 ZZW 1010,8 10
16.10.2019 03:00:00 11,1 8,8 24 13 36 19 ZZW 1010,5 10
16.10.2019 02:00:00 11,1 8,8 18 10 - - ZZW 1010,7 10
16.10.2019 01:00:00 11,1 8,8 21 11 29 16 ZZW 1010,3 10
16.10.2019 00:00:00 11,3 9,4 18 10 29 16 ZZW 1010,1 10
15.10.2019 23:00:00 11,9 9,8 15 8 - - ZZW 1009,8 10
15.10.2019 22:00:00 12,1 10,0 15 8 25 14 ZZW 1009,6 10
15.10.2019 21:00:00 12,4 10,3 16 9 22 12 ZZW 1009,2 10
15.10.2019 20:00:00 12,5 10,4 15 8 - - ZW 1008,5 10
15.10.2019 19:00:00 12,7 11,1 11 6 22 12 ZZW 1007,8 10
15.10.2019 18:00:00 13,0 11,0 15 8 22 12 ZZW 1007,3 10
15.10.2019 17:00:00 13,2 11,9 11 6 - - ZZW 1007,1 10
15.10.2019 16:00:00 13,2 11,8 11 6 18 10 Z 1007,3 15
15.10.2019 15:00:00 13,3 11,7 11 6 18 10 ZZW 1007,3 10
15.10.2019 14:00:00 13,5 11,5 13 7 - - Z 1007,3 10
15.10.2019 13:00:00 13,4 11,5 15 8 22 12 ZZW 1007,6 10
15.10.2019 12:00:00 13,1 11,8 13 7 22 12 ZZW 1007,6 10
15.10.2019 11:00:00 12,8 11,8 11 6 - - ZZW 1007,4 10
15.10.2019 10:00:00 12,7 11,3 13 7 25 14 ZW 1007,0 10
15.10.2019 09:00:00 13,5 12,2 13 7 22 12 ZZW 1006,7 6
15.10.2019 08:00:00 13,7 12,5 11 6 - - ZZW 1006,2 10
15.10.2019 07:00:00 13,9 12,5 16 9 29 16 ZZW 1006,2 10
15.10.2019 06:00:00 14,2 12,4 15 8 36 19 ZZW 1005,6 10
15.10.2019 05:00:00 14,7 11,9 24 13 - - ZZW 1006,2 10
15.10.2019 04:00:00 15,2 11,6 21 11 36 19 ZZW 1006,2 10
15.10.2019 03:00:00 16,3 11,0 21 11 32 18 ZZW 1006,3 10
15.10.2019 02:00:00 17,1 10,8 21 11 - - ZZW 1006,2 10
15.10.2019 01:00:00 17,6 11,6 18 10 29 16 ZZW 1006,3 10
15.10.2019 00:00:00 17,9 10,7 15 8 40 21 ZZW 1005,9 10
14.10.2019 23:00:00 20,0 13,2 16 9 - - ZW 1005,8 10
14.10.2019 22:00:00 19,5 13,4 11 6 22 12 Z 1005,6 10
14.10.2019 21:00:00 19,4 14,1 13 7 25 14 ZZO 1005,8 10
14.10.2019 20:00:00 19,1 14,1 15 8 - - ZZO 1005,8 10
14.10.2019 19:00:00 19,4 13,9 11 6 22 12 ZZO 1005,9 10
14.10.2019 18:00:00 20,5 14,4 11 6 25 14 ZO 1005,9 10
14.10.2019 17:00:00 20,9 14,3 16 9 - - ZZO 1006,7 10
14.10.2019 16:00:00 21,3 13,7 16 9 40 21 Z 1007,5 10
14.10.2019 15:00:00 22,0 13,6 18 10 32 18 Z 1007,8 10
14.10.2019 14:00:00 20,8 12,9 21 11 - - Z 1008,3 10
14.10.2019 13:00:00 19,6 13,0 15 8 29 16 Z 1009,3 10
14.10.2019 12:00:00 18,2 13,2 11 6 22 12 ZZO 1010,3 10
14.10.2019 11:00:00 16,3 13,7 5 3 - - ZO 1010,9 10
14.10.2019 10:00:00 13,8 12,6 9 5 18 10 OZO 1011,4 10
14.10.2019 09:00:00 12,6 11,3 11 6 18 10 O 1011,7 10
14.10.2019 08:00:00 12,3 11,3 8 4 - - O 1012,1 10
14.10.2019 07:00:00 11,8 11,0 5 3 11 6 OZO 1012,9 10
14.10.2019 06:00:00 11,6 10,8 5 3 11 6 ZO 1013,1 10
14.10.2019 05:00:00 12,1 11,4 9 5 - - ZO 1013,6 10
14.10.2019 04:00:00 12,3 11,5 8 4 11 6 ZO 1013,9 10
14.10.2019 03:00:00 13,4 11,8 8 4 11 6 ZZW 1014,5 10
14.10.2019 02:00:00 14,0 12,3 8 4 - - ZW 1013,9 10
14.10.2019 01:00:00 14,2 12,0 9 5 14 8 WZW 1013,4 10
14.10.2019 00:00:00 14,5 12,2 11 6 22 12 WZW 1013,2 10
13.10.2019 23:00:00 14,6 12,5 15 8 - - WZW 1012,7 10
13.10.2019 22:00:00 15,3 13,2 11 6 40 21 W 1012,0 10
13.10.2019 21:00:00 18,7 15,8 18 10 25 14 ZZW 1010,2 10
13.10.2019 20:00:00 18,9 15,7 16 9 - - ZW 1009,2 10
13.10.2019 19:00:00 20,5 14,7 15 8 25 14 ZZW 1008,4 8
13.10.2019 18:00:00 21,8 14,3 16 9 29 16 ZZW 1008,0 10
13.10.2019 17:00:00 22,2 14,3 21 11 - - ZW 1007,7 10
13.10.2019 16:00:00 22,7 14,4 28 15 54 29 ZZW 1007,5 10
13.10.2019 15:00:00 22,2 13,8 34 18 54 29 ZZW 1006,9 10
13.10.2019 14:00:00 22,3 13,5 32 18 - - ZZW 1006,9 20
13.10.2019 13:00:00 21,3 13,7 28 15 43 23 Z 1007,4 10
13.10.2019 12:00:00 20,1 13,8 24 13 40 21 Z 1008,0 10
13.10.2019 11:00:00 18,1 13,7 16 9 - - Z 1008,6 10
13.10.2019 10:00:00 18,0 14,1 15 8 32 18 Z 1008,7 10
13.10.2019 09:00:00 17,2 14,3 18 10 32 18 Z 1008,5 10
13.10.2019 08:00:00 16,5 14,5 18 10 - - ZZW 1008,6 10
13.10.2019 07:00:00 16,3 14,7 16 9 25 14 Z 1008,5 10
13.10.2019 06:00:00 16,2 15,0 16 9 29 16 Z 1008,6 10
13.10.2019 05:00:00 16,0 14,4 16 9 - - Z 1009,0 10
13.10.2019 04:00:00 15,5 14,2 16 9 22 12 Z 1009,2 10
13.10.2019 03:00:00 15,7 14,3 15 8 22 12 Z 1009,9 10
13.10.2019 02:00:00 15,7 14,2 14 8 - - Z 1010,1 15
13.10.2019 01:00:00 15,9 14,3 13 7 25 14 Z 1010,6 10
13.10.2019 00:00:00 15,6 14,0 15 8 22 12 ZZW 1010,8 10
12.10.2019 23:00:00 15,4 13,6 13 7 - - Z 1010,9 10
12.10.2019 22:00:00 15,0 13,3 11 6 25 14 Z 1011,1 10
12.10.2019 21:00:00 15,1 13,2 15 8 22 12 ZZW 1010,8 10
12.10.2019 20:00:00 15,2 12,9 13 7 - - ZZW 1010,6 10
12.10.2019 19:00:00 15,9 13,0 13 7 36 19 ZZW 1010,3 10
12.10.2019 18:00:00 16,8 12,8 21 11 36 19 ZZW 1009,9 10
12.10.2019 17:00:00 16,7 13,2 21 11 - - ZZW 1010,5 10
12.10.2019 16:00:00 17,0 12,2 28 15 43 23 ZZW 1011,2 10
12.10.2019 15:00:00 17,5 12,2 26 14 43 23 ZZW 1011,1 10
12.10.2019 14:00:00 16,5 11,9 26 14 - - ZZW 1011,6 10
12.10.2019 13:00:00 17,1 11,6 28 15 43 23 ZZW 1011,8 10
12.10.2019 12:00:00 16,1 11,7 28 15 40 21 ZZW 1011,4 10
12.10.2019 11:00:00 14,9 11,3 26 14 - - ZZW 1011,5 10
12.10.2019 10:00:00 13,6 10,8 22 12 36 19 ZZW 1011,2 10
12.10.2019 09:00:00 12,7 10,6 16 9 29 16 ZZW 1010,9 10
12.10.2019 08:00:00 12,4 10,6 16 9 - - ZZW 1010,5 10
12.10.2019 07:00:00 12,8 10,4 22 12 32 18 ZZW 1010,3 10
12.10.2019 06:00:00 13,3 10,5 21 11 40 21 ZZW 1010,1 10
12.10.2019 05:00:00 13,8 10,4 24 13 - - ZZW 1010,0 10
12.10.2019 04:00:00 14,0 10,3 21 11 36 19 ZZW 1010,2 10
12.10.2019 03:00:00 14,1 10,2 22 12 32 18 ZZW 1010,2 10

tt = temperatuur
td = dauwpunt
ff = windsnelheid
fx = windstoten
dd = windrichting
ppp = luchtdruk
vv = zicht

Weerstations in de omgeving